| time (UTC) | temp F | wind direction | speed MPH | gust MPH | rain 1hr in | rain 24hr in | rain mn in | humidity % | barometer mb |
| 20260506211408 | 70 | 293 | 6.0 | 8.0 | 0.00 | 0.00 | 0.00 | 69 | 1008.9 |
| 20260506210905 | 70 | 246 | 2.0 | 5.0 | 0.00 | 0.00 | 0.00 | 70 | 1008.9 |
| 20260506210402 | 70 | 278 | 7.0 | 12.0 | 0.00 | 0.00 | 0.00 | 69 | 1008.8 |
| 20260506205859 | 71 | 275 | 2.0 | 5.0 | 0.00 | 0.00 | 0.00 | 67 | 1008.9 |
| 20260506205355 | 72 | 249 | 5.0 | 6.0 | 0.00 | 0.00 | 0.00 | 66 | 1008.7 |
| 20260506204851 | 71 | 260 | 5.0 | 6.0 | 0.00 | 0.00 | 0.00 | 67 | 1008.8 |
| 20260506204349 | 71 | 259 | 6.0 | 8.0 | 0.00 | 0.00 | 0.00 | 66 | 1008.6 |
| 20260506203846 | 72 | 290 | 3.0 | 5.0 | 0.00 | 0.00 | 0.00 | 66 | 1008.6 |
| 20260506203343 | 71 | 208 | 4.0 | 5.0 | 0.00 | 0.00 | 0.00 | 68 | 1008.6 |
| 20260506202840 | 69 | 254 | 2.0 | 6.0 | 0.00 | 0.00 | 0.00 | 71 | 1008.6 |
| 20260506202337 | 69 | 211 | 2.0 | 6.0 | 0.00 | 0.00 | 0.00 | 71 | 1008.7 |
| 20260506201834 | 68 | 213 | 3.0 | 9.0 | 0.00 | 0.00 | 0.00 | 71 | 1008.6 |
| 20260506201331 | 68 | 284 | 4.0 | 10.0 | 0.00 | 0.00 | 0.00 | 71 | 1008.7 |
| 20260506200828 | 68 | 245 | 5.0 | 6.0 | 0.00 | 0.00 | 0.00 | 72 | 1008.7 |
| 20260506200324 | 68 | 262 | 3.0 | 8.0 | 0.00 | 0.00 | 0.00 | 72 | 1008.8 |
| 20260506195820 | 68 | 228 | 2.0 | 4.0 | 0.00 | 0.00 | 0.00 | 73 | 1008.7 |
| 20260506195318 | 68 | 262 | 3.0 | 9.0 | 0.00 | 0.00 | 0.00 | 72 | 1008.9 |
| 20260506194815 | 68 | 258 | 5.0 | 10.0 | 0.00 | 0.00 | 0.00 | 72 | 1009.0 |
| 20260506194311 | 68 | 249 | 3.0 | 3.0 | 0.00 | 0.00 | 0.00 | 73 | 1009.1 |
| 20260506193809 | 68 | 277 | 4.0 | 4.0 | 0.00 | 0.00 | 0.00 | 73 | 1009.1 |
| 20260506193305 | 67 | 221 | 1.0 | 6.0 | 0.00 | 0.00 | 0.00 | 74 | 1009.3 |
| 20260506192802 | 67 | 237 | 3.0 | 5.0 | 0.00 | 0.00 | 0.00 | 73 | 1009.2 |
| 20260506192259 | 67 | 322 | 4.0 | 5.0 | 0.00 | 0.00 | 0.00 | 74 | 1009.1 |
| 20260506191756 | 67 | 294 | 2.0 | 3.0 | 0.00 | 0.00 | 0.00 | 74 | 1009.3 |
| 20260506191252 | 67 | 231 | 2.0 | 5.0 | 0.00 | 0.00 | 0.00 | 74 | 1009.3 |
| 20260506190749 | 67 | 180 | 4.0 | 13.0 | 0.00 | 0.00 | 0.00 | 74 | 1009.5 |
| 20260506190245 | 67 | 199 | 3.0 | 6.0 | 0.00 | 0.00 | 0.00 | 74 | 1009.5 |
| 20260506185742 | 67 | 235 | 7.0 | 8.0 | 0.00 | 0.00 | 0.00 | 74 | 1009.3 |
| 20260506185239 | 67 | 197 | 1.0 | 5.0 | 0.00 | 0.00 | 0.00 | 75 | 1009.4 |
| 20260506184736 | 67 | 244 | 4.0 | 11.0 | 0.00 | 0.00 | 0.00 | 75 | 1009.4 |
| 20260506184233 | 67 | 228 | 6.0 | 6.0 | 0.00 | 0.00 | 0.00 | 76 | 1009.6 |
| 20260506183730 | 66 | 229 | 3.0 | 3.0 | 0.00 | 0.00 | 0.00 | 77 | 1009.5 |
| 20260506183226 | 66 | 278 | 2.0 | 5.0 | 0.00 | 0.00 | 0.00 | 77 | 1009.5 |
| 20260506182723 | 66 | 187 | 2.0 | 4.0 | 0.00 | 0.00 | 0.00 | 77 | 1009.6 |
| 20260506182220 | 66 | 282 | 3.0 | 3.0 | 0.00 | 0.00 | 0.00 | 78 | 1009.5 |
| 20260506181718 | 66 | 211 | 2.0 | 5.0 | 0.00 | 0.00 | 0.00 | 77 | 1009.7 |
| 20260506181216 | 66 | 249 | 1.0 | 5.0 | 0.00 | 0.00 | 0.00 | 77 | 1009.7 |
| 20260506180713 | 66 | 198 | 3.0 | 6.0 | 0.00 | 0.00 | 0.00 | 76 | 1009.7 |
| 20260506180208 | 67 | 233 | 5.0 | 8.0 | 0.00 | 0.00 | 0.00 | 73 | 1009.8 |
| 20260506175705 | 67 | 248 | 4.0 | 5.0 | 0.00 | 0.00 | 0.00 | 73 | 1009.8 |
| 20260506175202 | 67 | 159 | 3.0 | 5.0 | 0.00 | 0.00 | 0.00 | 72 | 1009.8 |
| 20260506174654 | 67 | 239 | 2.0 | 5.0 | 0.00 | 0.00 | 0.00 | 73 | 1009.7 |
| 20260506174151 | 67 | 355 | 1.0 | 5.0 | 0.00 | 0.00 | 0.00 | 73 | 1009.8 |
| 20260506173649 | 67 | 206 | 3.0 | 5.0 | 0.00 | 0.00 | 0.00 | 73 | 1009.9 |
| 20260506173145 | 67 | 187 | 3.0 | 5.0 | 0.00 | 0.00 | 0.00 | 73 | 1009.8 |
| 20260506172642 | 67 | 236 | 4.0 | 5.0 | 0.00 | 0.00 | 0.00 | 72 | 1009.9 |
| 20260506172139 | 67 | 193 | 3.0 | 7.0 | 0.00 | 0.00 | 0.00 | 72 | 1010.1 |
| 20260506171631 | 66 | 212 | 2.0 | 8.0 | 0.00 | 0.00 | 0.00 | 75 | 1010.0 |
| 20260506171129 | 66 | 222 | 3.0 | 4.0 | 0.00 | 0.00 | 0.00 | 75 | 1010.1 |
| 20260506170626 | 66 | 184 | 0.0 | 4.0 | 0.00 | 0.00 | 0.00 | 75 | 1010.1 |
| 20260506170123 | 67 | 219 | 3.0 | 5.0 | 0.00 | 0.00 | 0.00 | 75 | 1010.2 |
| 20260506165621 | 67 | 218 | 4.0 | 6.0 | 0.00 | 0.00 | 0.00 | 74 | 1010.2 |
| 20260506165117 | 68 | 205 | 3.0 | 11.0 | 0.00 | 0.00 | 0.00 | 74 | 1010.2 |
| 20260506164614 | 68 | 133 | 0.0 | 5.0 | 0.00 | 0.00 | 0.00 | 73 | 1010.3 |
| 20260506164112 | 68 | 252 | 1.0 | 5.0 | 0.00 | 0.00 | 0.00 | 73 | 1010.4 |
| 20260506163607 | 68 | 227 | 3.0 | 4.0 | 0.00 | 0.00 | 0.00 | 74 | 1010.2 |
| 20260506163103 | 68 | 187 | 0.0 | 4.0 | 0.00 | 0.00 | 0.00 | 72 | 1010.3 |
| 20260506162600 | 68 | 236 | 2.0 | 4.0 | 0.00 | 0.00 | 0.00 | 70 | 1010.7 |
| 20260506162057 | 68 | 230 | 3.0 | 5.0 | 0.00 | 0.00 | 0.00 | 70 | 1010.7 |
| 20260506161554 | 68 | 272 | 2.0 | 3.0 | 0.00 | 0.00 | 0.00 | 69 | 1011.0 |
| 20260506161051 | 68 | 227 | 3.0 | 3.0 | 0.00 | 0.00 | 0.00 | 68 | 1011.1 |
| 20260506160548 | 68 | 202 | 0.0 | 5.0 | 0.00 | 0.00 | 0.00 | 68 | 1011.4 |
| 20260506160045 | 68 | 179 | 4.0 | 5.0 | 0.00 | 0.00 | 0.00 | 66 | 1011.4 |
| 20260506155544 | 68 | 175 | 1.0 | 5.0 | 0.00 | 0.00 | 0.00 | 68 | 1011.4 |
| 20260506153715 | 68 | 222 | 2.0 | 4.0 | 0.00 | 0.00 | 0.00 | 66 | 1011.4 |
| 20260506153213 | 69 | 180 | 3.0 | 3.0 | 0.00 | 0.00 | 0.00 | 66 | 1011.2 |
| 20260506152709 | 69 | 275 | 2.0 | 6.0 | 0.00 | 0.00 | 0.00 | 63 | 1011.1 |
| 20260506152207 | 69 | 249 | 7.0 | 8.0 | 0.00 | 0.00 | 0.00 | 62 | 1011.3 |
| 20260506151706 | 69 | 223 | 3.0 | 5.0 | 0.00 | 0.00 | 0.00 | 60 | 1011.2 |
| 20260506151202 | 70 | 225 | 3.0 | 5.0 | 0.00 | 0.00 | 0.00 | 60 | 1011.3 |
| 20260506150658 | 70 | 195 | 3.0 | 8.0 | 0.00 | 0.00 | 0.00 | 58 | 1011.4 |
| 20260506150156 | 71 | 230 | 2.0 | 5.0 | 0.00 | 0.00 | 0.00 | 58 | 1011.1 |
| 20260506145653 | 71 | 248 | 4.0 | 5.0 | 0.00 | 0.00 | 0.00 | 58 | 1011.3 |
| 20260506145149 | 71 | 237 | 4.0 | 5.0 | 0.00 | 0.00 | 0.00 | 58 | 1011.4 |
| 20260506144647 | 70 | 252 | 3.0 | 9.0 | 0.00 | 0.00 | 0.00 | 59 | 1011.4 |
| 20260506144144 | 70 | 229 | 2.0 | 5.0 | 0.00 | 0.00 | 0.00 | 60 | 1011.4 |
| 20260506143641 | 69 | 193 | 3.0 | 5.0 | 0.00 | 0.00 | 0.00 | 60 | 1011.5 |
| 20260506143139 | 69 | 176 | 4.0 | 6.0 | 0.00 | 0.00 | 0.00 | 60 | 1011.5 |
| 20260506142637 | 69 | 244 | 4.0 | 4.0 | 0.00 | 0.00 | 0.00 | 59 | 1011.4 |
| 20260506142135 | 69 | 261 | 2.0 | 5.0 | 0.00 | 0.00 | 0.00 | 59 | 1011.3 |
| 20260506141632 | 70 | 240 | 3.0 | 5.0 | 0.00 | 0.00 | 0.00 | 59 | 1011.3 |
| 20260506141131 | 70 | 232 | 8.0 | 9.0 | 0.00 | 0.00 | 0.00 | 58 | 1011.3 |
| 20260506140628 | 70 | 207 | 3.0 | 8.0 | 0.00 | 0.00 | 0.00 | 59 | 1011.2 |
| 20260506140125 | 70 | 203 | 2.0 | 6.0 | 0.00 | 0.00 | 0.00 | 59 | 1011.3 |
| 20260506135622 | 70 | 214 | 3.0 | 6.0 | 0.00 | 0.00 | 0.00 | 59 | 1011.1 |
| 20260506135118 | 69 | 214 | 2.0 | 6.0 | 0.00 | 0.00 | 0.00 | 60 | 1011.1 |
| 20260506134615 | 69 | 234 | 0.0 | 3.0 | 0.00 | 0.00 | 0.00 | 62 | 1011.0 |
| 20260506134110 | 69 | 252 | 2.0 | 4.0 | 0.00 | 0.00 | 0.00 | 62 | 1011.2 |
| 20260506133608 | 68 | 225 | 3.0 | 5.0 | 0.00 | 0.00 | 0.00 | 62 | 1011.2 |
| 20260506133105 | 68 | 248 | 2.0 | 3.0 | 0.00 | 0.00 | 0.00 | 63 | 1011.2 |
| 20260506132602 | 68 | 211 | 2.0 | 3.0 | 0.00 | 0.00 | 0.00 | 63 | 1011.4 |
| 20260506132059 | 68 | 228 | 2.0 | 3.0 | 0.00 | 0.00 | 0.00 | 62 | 1011.0 |
| 20260506131556 | 69 | 254 | 3.0 | 4.0 | 0.00 | 0.00 | 0.00 | 62 | 1011.4 |
| 20260506131052 | 69 | 226 | 3.0 | 4.0 | 0.00 | 0.00 | 0.00 | 62 | 1011.7 |
| 20260506130549 | 69 | 241 | 4.0 | 5.0 | 0.00 | 0.00 | 0.00 | 62 | 1011.5 |
| 20260506130047 | 68 | 248 | 3.0 | 4.0 | 0.00 | 0.00 | 0.00 | 62 | 1011.5 |
| 20260506125545 | 69 | 186 | 2.0 | 9.0 | 0.00 | 0.00 | 0.00 | 63 | 1011.4 |
| 20260506125043 | 69 | 195 | 2.0 | 6.0 | 0.00 | 0.00 | 0.00 | 62 | 1011.4 |
| 20260506124540 | 69 | 211 | 5.0 | 11.0 | 0.00 | 0.00 | 0.00 | 61 | 1011.5 |
| 20260506124038 | 69 | 204 | 3.0 | 4.0 | 0.00 | 0.00 | 0.00 | 63 | 1011.5 |
| 20260506123535 | 69 | 236 | 2.0 | 3.0 | 0.00 | 0.00 | 0.00 | 63 | 1011.4 |
| 20260506123034 | 68 | 212 | 3.0 | 5.0 | 0.00 | 0.00 | 0.00 | 63 | 1011.2 |
| 20260506122529 | 69 | 211 | 4.0 | 7.0 | 0.00 | 0.00 | 0.00 | 62 | 1011.2 |
| 20260506122028 | 69 | 240 | 4.0 | 7.0 | 0.00 | 0.00 | 0.00 | 63 | 1011.6 |
| 20260506121525 | 68 | 197 | 3.0 | 3.0 | 0.00 | 0.00 | 0.00 | 64 | 1011.3 |
| 20260506121021 | 68 | 232 | 2.0 | 5.0 | 0.00 | 0.00 | 0.00 | 64 | 1011.3 |
| 20260506120520 | 68 | 211 | 2.0 | 4.0 | 0.00 | 0.00 | 0.00 | 66 | 1011.3 |
| 20260506120017 | 66 | 205 | 3.0 | 4.0 | 0.00 | 0.00 | 0.00 | 68 | 1011.4 |
| 20260506115514 | 66 | 161 | 2.0 | 7.0 | 0.00 | 0.00 | 0.00 | 68 | 1011.4 |
| 20260506115013 | 66 | 272 | 2.0 | 3.0 | 0.00 | 0.00 | 0.00 | 69 | 1011.3 |
| 20260506114510 | 66 | 220 | 2.0 | 5.0 | 0.00 | 0.00 | 0.00 | 68 | 1011.4 |
| 20260506114008 | 66 | 271 | 2.0 | 4.0 | 0.00 | 0.00 | 0.00 | 69 | 1011.4 |
| 20260506113506 | 66 | 222 | 2.0 | 5.0 | 0.00 | 0.00 | 0.00 | 69 | 1011.4 |
| 20260506113003 | 65 | 209 | 2.0 | 3.0 | 0.00 | 0.00 | 0.00 | 70 | 1011.4 |
| 20260506112459 | 65 | 240 | 1.0 | 4.0 | 0.00 | 0.00 | 0.00 | 69 | 1011.5 |
| 20260506111956 | 66 | 206 | 0.0 | 5.0 | 0.00 | 0.00 | 0.00 | 69 | 1011.4 |
| 20260506111455 | 66 | 197 | 2.0 | 2.0 | 0.00 | 0.00 | 0.00 | 70 | 1011.4 |
| 20260506110951 | 66 | 263 | 3.0 | 5.0 | 0.00 | 0.00 | 0.00 | 69 | 1011.5 |
| 20260506110449 | 66 | 237 | 4.0 | 4.0 | 0.00 | 0.00 | 0.00 | 69 | 1011.6 |
| 20260506105946 | 65 | 232 | 3.0 | 5.0 | 0.00 | 0.00 | 0.00 | 69 | 1011.6 |
| 20260506105442 | 65 | 259 | 2.0 | 3.0 | 0.00 | 0.00 | 0.00 | 70 | 1011.5 |
| 20260506104939 | 65 | 201 | 1.0 | 2.0 | 0.00 | 0.00 | 0.00 | 72 | 1011.5 |
| 20260506104437 | 64 | 243 | 3.0 | 3.0 | 0.00 | 0.00 | 0.00 | 72 | 1011.6 |
| 20260506103936 | 64 | 271 | 5.0 | 5.0 | 0.00 | 0.00 | 0.00 | 72 | 1011.4 |
| 20260506103432 | 64 | 243 | 2.0 | 7.0 | 0.00 | 0.00 | 0.00 | 72 | 1011.5 |
| 20260506102929 | 64 | 223 | 0.0 | 4.0 | 0.00 | 0.00 | 0.00 | 73 | 1011.4 |
| 20260506102427 | 64 | 249 | 3.0 | 4.0 | 0.00 | 0.00 | 0.00 | 74 | 1011.6 |
| 20260506101924 | 64 | 259 | 0.0 | 3.0 | 0.00 | 0.00 | 0.00 | 74 | 1011.5 |
| 20260506101420 | 64 | 126 | 2.0 | 7.0 | 0.00 | 0.00 | 0.00 | 74 | 1011.6 |
| 20260506100918 | 64 | 164 | 2.0 | 3.0 | 0.00 | 0.00 | 0.00 | 74 | 1011.5 |
| 20260506100416 | 64 | 49 | 0.0 | 2.0 | 0.00 | 0.00 | 0.00 | 74 | 1011.6 |
| 20260506095914 | 64 | 225 | 2.0 | 3.0 | 0.00 | 0.00 | 0.00 | 74 | 1011.4 |
| 20260506095412 | 64 | 230 | 0.0 | 4.0 | 0.00 | 0.00 | 0.00 | 74 | 1011.6 |
| 20260506094908 | 64 | 235 | 2.0 | 3.0 | 0.00 | 0.00 | 0.00 | 75 | 1011.4 |
| 20260506094407 | 64 | 281 | 3.0 | 3.0 | 0.00 | 0.00 | 0.00 | 75 | 1011.3 |
| 20260506093904 | 64 | 191 | 0.0 | 4.0 | 0.00 | 0.00 | 0.00 | 75 | 1011.3 |
| 20260506093402 | 64 | 204 | 2.0 | 5.0 | 0.00 | 0.00 | 0.00 | 75 | 1011.2 |
| 20260506092859 | 64 | 137 | 1.0 | 2.0 | 0.00 | 0.00 | 0.00 | 75 | 1011.3 |
| 20260506092357 | 64 | 189 | 1.0 | 2.0 | 0.00 | 0.00 | 0.00 | 76 | 1011.3 |
| 20260506091853 | 64 | 229 | 0.0 | 2.0 | 0.00 | 0.00 | 0.00 | 75 | 1011.3 |
| 20260506091352 | 64 | 255 | 0.0 | 2.0 | 0.00 | 0.00 | 0.00 | 75 | 1011.2 |
| 20260506090848 | 64 | 138 | 2.0 | 3.0 | 0.00 | 0.00 | 0.00 | 75 | 1011.4 |
| 20260506090346 | 64 | 192 | 0.0 | 4.0 | 0.00 | 0.00 | 0.00 | 75 | 1011.4 |
| 20260506085843 | 64 | 257 | 0.0 | 3.0 | 0.00 | 0.00 | 0.00 | 75 | 1011.6 |
| 20260506085339 | 64 | 104 | 2.0 | 2.0 | 0.00 | 0.00 | 0.00 | 75 | 1011.5 |
| 20260506084835 | 64 | 283 | 4.0 | 4.0 | 0.00 | 0.00 | 0.00 | 75 | 1011.6 |
| 20260506084332 | 64 | 165 | 3.0 | 3.0 | 0.00 | 0.00 | 0.00 | 74 | 1011.6 |
| 20260506083829 | 65 | 289 | 1.0 | 2.0 | 0.00 | 0.00 | 0.00 | 74 | 1011.6 |
| 20260506083326 | 65 | 240 | 3.0 | 3.0 | 0.00 | 0.00 | 0.00 | 74 | 1011.6 |
| 20260506082824 | 65 | 51 | 0.0 | 2.0 | 0.00 | 0.00 | 0.00 | 74 | 1011.7 |
| 20260506082320 | 65 | 239 | 0.0 | 3.0 | 0.00 | 0.00 | 0.00 | 74 | 1011.7 |
| 20260506081816 | 65 | 236 | 0.0 | 2.0 | 0.00 | 0.00 | 0.00 | 74 | 1011.6 |
| 20260506081314 | 65 | 77 | 0.0 | 3.0 | 0.00 | 0.00 | 0.00 | 73 | 1011.7 |
| 20260506080812 | 65 | 228 | 2.0 | 3.0 | 0.00 | 0.00 | 0.00 | 73 | 1011.8 |
| 20260506080308 | 66 | 227 | 0.0 | 3.0 | 0.00 | 0.00 | 0.00 | 72 | 1011.8 |
| 20260506073252 | 66 | 283 | 1.0 | 3.0 | 0.00 | 0.00 | 0.00 | 72 | 1011.6 |
| 20260506072749 | 66 | 205 | 0.0 | 5.0 | 0.00 | 0.00 | 0.00 | 72 | 1011.6 |
| 20260506072246 | 66 | 248 | 0.0 | 3.0 | 0.00 | 0.00 | 0.00 | 72 | 1011.6 |
| 20260506071744 | 66 | 238 | 0.0 | 4.0 | 0.00 | 0.00 | 0.00 | 72 | 1011.6 |
| 20260506071242 | 66 | 257 | 1.0 | 3.0 | 0.00 | 0.00 | 0.00 | 73 | 1011.7 |
| 20260506070739 | 66 | 175 | 2.0 | 3.0 | 0.00 | 0.00 | 0.00 | 73 | 1011.7 |
| 20260506070235 | 65 | 88 | 1.0 | 3.0 | 0.00 | 0.00 | 0.00 | 74 | 1011.8 |
| 20260506062212 | 66 | 217 | 0.0 | 3.0 | 0.00 | 0.00 | 0.00 | 73 | 1012.0 |
| 20260506061708 | 66 | 124 | 0.0 | 2.0 | 0.00 | 0.00 | 0.00 | 72 | 1012.0 |
| 20260506061206 | 66 | 185 | 0.0 | 3.0 | 0.00 | 0.00 | 0.00 | 72 | 1011.8 |
| 20260506060705 | 66 | 239 | 2.0 | 3.0 | 0.00 | 0.00 | 0.00 | 72 | 1012.0 |
| 20260506060201 | 66 | 282 | 2.0 | 4.0 | 0.00 | 0.00 | 0.00 | 72 | 1011.9 |
| 20260506051133 | 67 | 256 | 1.0 | 5.0 | 0.00 | 0.00 | 0.00 | 69 | 1012.2 |
| 20260506050631 | 68 | 150 | 0.0 | 3.0 | 0.00 | 0.00 | 0.00 | 68 | 1012.3 |
| 20260506050128 | 67 | 40 | 1.0 | 3.0 | 0.00 | 0.00 | 0.00 | 68 | 1012.3 |
| 20260506045121 | 68 | 204 | 2.0 | 3.0 | 0.00 | 0.00 | 0.00 | 67 | 1012.2 |
| 20260506044619 | 68 | 293 | 0.0 | 5.0 | 0.00 | 0.00 | 0.00 | 67 | 1012.3 |
| 20260506044116 | 68 | 269 | 2.0 | 4.0 | 0.00 | 0.00 | 0.00 | 67 | 1012.2 |
| 20260506043613 | 68 | 231 | 2.0 | 4.0 | 0.00 | 0.00 | 0.00 | 67 | 1012.3 |
| 20260506043111 | 68 | 236 | 1.0 | 4.0 | 0.00 | 0.00 | 0.00 | 67 | 1012.4 |
| 20260506042610 | 68 | 285 | 1.0 | 4.0 | 0.00 | 0.00 | 0.00 | 66 | 1012.2 |
| 20260506042108 | 68 | 191 | 2.0 | 3.0 | 0.00 | 0.00 | 0.00 | 66 | 1012.2 |
| 20260506041606 | 68 | 235 | 1.0 | 5.0 | 0.00 | 0.00 | 0.00 | 66 | 1012.2 |
| 20260506041102 | 68 | 165 | 2.0 | 5.0 | 0.00 | 0.00 | 0.00 | 65 | 1012.2 |
| 20260506040601 | 68 | 204 | 4.0 | 5.0 | 0.00 | 0.00 | 0.00 | 65 | 1012.3 |
| 20260506040056 | 68 | 184 | 0.0 | 3.0 | 0.00 | 0.00 | 0.00 | 65 | 1012.1 |
| 20260506035553 | 68 | 268 | 2.0 | 3.0 | 0.00 | 0.00 | 0.00 | 65 | 1012.3 |
| 20260506035050 | 68 | 225 | 3.0 | 3.0 | 0.00 | 0.00 | 0.00 | 64 | 1012.3 |
| 20260506034547 | 68 | 283 | 1.0 | 4.0 | 0.00 | 0.00 | 0.00 | 64 | 1012.3 |
| 20260506034044 | 68 | 57 | 1.0 | 6.0 | 0.00 | 0.00 | 0.00 | 63 | 1012.1 |
| 20260506033542 | 68 | 234 | 3.0 | 3.0 | 0.00 | 0.00 | 0.00 | 63 | 1012.3 |
| 20260506033038 | 68 | 195 | 1.0 | 2.0 | 0.00 | 0.00 | 0.00 | 63 | 1012.2 |
| 20260506032536 | 69 | 147 | 0.0 | 4.0 | 0.00 | 0.00 | 0.00 | 62 | 1012.2 |
| 20260506032032 | 69 | 233 | 3.0 | 3.0 | 0.00 | 0.00 | 0.00 | 62 | 1012.3 |
| 20260506031530 | 69 | 190 | 0.0 | 4.0 | 0.00 | 0.00 | 0.00 | 61 | 1012.1 |
| 20260506031027 | 69 | 338 | 1.0 | 5.0 | 0.00 | 0.00 | 0.00 | 61 | 1012.2 |
| 20260506030525 | 69 | 167 | 0.0 | 4.0 | 0.00 | 0.00 | 0.00 | 61 | 1012.2 |
| 20260506030022 | 69 | 201 | 3.0 | 3.0 | 0.00 | 0.00 | 0.00 | 60 | 1012.2 |
| 20260506025519 | 69 | 272 | 2.0 | 5.0 | 0.00 | 0.00 | 0.00 | 60 | 1012.1 |
| 20260506025015 | 69 | 234 | 2.0 | 5.0 | 0.00 | 0.00 | 0.00 | 60 | 1012.2 |
| 20260506024512 | 69 | 231 | 3.0 | 4.0 | 0.00 | 0.00 | 0.00 | 59 | 1012.3 |
| 20260506024008 | 69 | 204 | 3.0 | 5.0 | 0.00 | 0.00 | 0.00 | 59 | 1012.4 |
| 20260506023504 | 70 | 176 | 2.0 | 3.0 | 0.00 | 0.00 | 0.00 | 58 | 1012.5 |
| 20260506023002 | 70 | 227 | 0.0 | 7.0 | 0.00 | 0.00 | 0.00 | 57 | 1012.3 |
| 20260506022500 | 70 | 266 | 2.0 | 5.0 | 0.00 | 0.00 | 0.00 | 57 | 1012.2 |
| 20260506021957 | 70 | 208 | 4.0 | 6.0 | 0.00 | 0.00 | 0.00 | 57 | 1012.4 |
| 20260506021454 | 70 | 211 | 0.0 | 3.0 | 0.00 | 0.00 | 0.00 | 56 | 1012.4 |
| 20260506020951 | 70 | 99 | 4.0 | 5.0 | 0.00 | 0.00 | 0.00 | 56 | 1012.3 |
| 20260506020449 | 70 | 227 | 0.0 | 3.0 | 0.00 | 0.00 | 0.00 | 56 | 1012.3 |
| 20260506015946 | 70 | 189 | 2.0 | 3.0 | 0.00 | 0.00 | 0.00 | 56 | 1012.0 |
| 20260506015443 | 71 | 282 | 2.0 | 2.0 | 0.00 | 0.00 | 0.00 | 55 | 1012.2 |
| 20260506014940 | 71 | 156 | 3.0 | 5.0 | 0.00 | 0.00 | 0.00 | 55 | 1012.0 |
| 20260506014437 | 71 | 157 | 3.0 | 7.0 | 0.00 | 0.00 | 0.00 | 54 | 1012.1 |
| 20260506013933 | 71 | 239 | 2.0 | 3.0 | 0.00 | 0.00 | 0.00 | 54 | 1011.9 |
| 20260506013432 | 71 | 217 | 0.0 | 2.0 | 0.00 | 0.00 | 0.00 | 54 | 1011.9 |
| 20260506012928 | 71 | 179 | 2.0 | 4.0 | 0.00 | 0.00 | 0.00 | 54 | 1011.9 |
| 20260506012424 | 71 | 142 | 0.0 | 3.0 | 0.00 | 0.00 | 0.00 | 55 | 1011.9 |
| 20260506011921 | 71 | 207 | 2.0 | 4.0 | 0.00 | 0.00 | 0.00 | 55 | 1011.8 |
| 20260506011419 | 71 | 107 | 0.0 | 2.0 | 0.00 | 0.00 | 0.00 | 54 | 1011.9 |
| 20260506010915 | 71 | 240 | 3.0 | 5.0 | 0.00 | 0.00 | 0.00 | 54 | 1011.9 |
| 20260506010414 | 71 | 247 | 2.0 | 5.0 | 0.00 | 0.00 | 0.00 | 54 | 1011.8 |
| 20260506005910 | 71 | 53 | 1.0 | 4.0 | 0.00 | 0.00 | 0.00 | 54 | 1011.9 |
| 20260506005408 | 71 | 236 | 0.0 | 4.0 | 0.00 | 0.00 | 0.00 | 54 | 1011.6 |
| 20260506004903 | 72 | 259 | 0.0 | 3.0 | 0.00 | 0.00 | 0.00 | 53 | 1011.6 |
| 20260506004401 | 72 | 167 | 2.0 | 5.0 | 0.00 | 0.00 | 0.00 | 52 | 1011.6 |
| 20260506003857 | 72 | 241 | 3.0 | 3.0 | 0.00 | 0.00 | 0.00 | 52 | 1011.7 |
| 20260506003353 | 72 | 32 | 0.0 | 4.0 | 0.00 | 0.00 | 0.00 | 51 | 1011.6 |
| 20260506002850 | 73 | 60 | 0.0 | 3.0 | 0.00 | 0.00 | 0.00 | 49 | 1011.5 |
| 20260506002346 | 73 | 171 | 1.0 | 2.0 | 0.00 | 0.00 | 0.00 | 49 | 1011.3 |
| 20260506001842 | 73 | 340 | 2.0 | 4.0 | 0.00 | 0.00 | 0.00 | 47 | 1011.4 |
| 20260506001339 | 74 | 146 | 2.0 | 3.0 | 0.00 | 0.00 | 0.00 | 46 | 1011.2 |
| 20260506000836 | 74 | 173 | 1.0 | 2.0 | 0.00 | 0.00 | 0.00 | 45 | 1011.3 |
| 20260506000334 | 75 | 237 | 0.0 | 2.0 | 0.00 | 0.00 | 0.00 | 43 | 1011.3 |
| 20260505235830 | 75 | 236 | 3.0 | 3.0 | 0.00 | 0.00 | 0.00 | 42 | 1011.1 |
| 20260505235328 | 76 | 281 | 4.0 | 4.0 | 0.00 | 0.00 | 0.00 | 42 | 1011.3 |
| 20260505234824 | 76 | 140 | 0.0 | 2.0 | 0.00 | 0.00 | 0.00 | 41 | 1011.1 |
| 20260505234322 | 77 | 222 | 1.0 | 2.0 | 0.00 | 0.00 | 0.00 | 40 | 1011.1 |
| 20260505233819 | 77 | 260 | 0.0 | 2.0 | 0.00 | 0.00 | 0.00 | 38 | 1010.9 |
| 20260505233317 | 78 | 279 | 2.0 | 3.0 | 0.00 | 0.00 | 0.00 | 36 | 1011.0 |
| 20260505232814 | 78 | 166 | 1.0 | 7.0 | 0.00 | 0.00 | 0.00 | 36 | 1010.8 |
| 20260505232312 | 78 | 167 | 2.0 | 4.0 | 0.00 | 0.00 | 0.00 | 36 | 1010.8 |
| 20260505231808 | 78 | 222 | 3.0 | 4.0 | 0.00 | 0.00 | 0.00 | 36 | 1010.7 |
| 20260505231307 | 79 | 174 | 1.0 | 5.0 | 0.00 | 0.00 | 0.00 | 36 | 1010.6 |
| 20260505230804 | 79 | 189 | 2.0 | 5.0 | 0.00 | 0.00 | 0.00 | 36 | 1010.6 |
| 20260505230301 | 79 | 269 | 0.0 | 5.0 | 0.00 | 0.00 | 0.00 | 36 | 1010.6 |
| 20260505225757 | 79 | 235 | 2.0 | 3.0 | 0.00 | 0.00 | 0.00 | 36 | 1010.6 |
| 20260505225254 | 80 | 189 | 2.0 | 5.0 | 0.00 | 0.00 | 0.00 | 35 | 1010.4 |
| 20260505224749 | 80 | 201 | 3.0 | 4.0 | 0.00 | 0.00 | 0.00 | 35 | 1010.4 |
| 20260505224248 | 80 | 240 | 3.0 | 4.0 | 0.00 | 0.00 | 0.00 | 34 | 1010.5 |
| 20260505223745 | 80 | 224 | 4.0 | 8.0 | 0.00 | 0.00 | 0.00 | 34 | 1010.5 |
| 20260505223241 | 81 | 240 | 3.0 | 6.0 | 0.00 | 0.00 | 0.00 | 34 | 1010.7 |
| 20260505222737 | 81 | 232 | 4.0 | 6.0 | 0.00 | 0.00 | 0.00 | 33 | 1010.7 |
| 20260505222234 | 82 | 236 | 5.0 | 5.0 | 0.00 | 0.00 | 0.00 | 34 | 1010.5 |
| 20260505221731 | 82 | 237 | 0.0 | 7.0 | 0.00 | 0.00 | 0.00 | 33 | 1010.5 |
| 20260505221227 | 83 | 280 | 2.0 | 9.0 | 0.00 | 0.00 | 0.00 | 32 | 1010.5 |
| 20260505220724 | 83 | 260 | 2.0 | 6.0 | 0.00 | 0.00 | 0.00 | 33 | 1010.4 |
| 20260505220222 | 83 | 286 | 3.0 | 9.0 | 0.00 | 0.00 | 0.00 | 32 | 1010.5 |
| 20260505215719 | 84 | 287 | 1.0 | 8.0 | 0.00 | 0.00 | 0.00 | 31 | 1010.3 |
| 20260505215212 | 84 | 199 | 2.0 | 7.0 | 0.00 | 0.00 | 0.00 | 30 | 1010.3 |
| 20260505214709 | 85 | 282 | 6.0 | 6.0 | 0.00 | 0.00 | 0.00 | 29 | 1010.5 |
| 20260505214206 | 84 | 235 | 4.0 | 9.0 | 0.00 | 0.00 | 0.00 | 29 | 1010.4 |
| 20260505213704 | 84 | 204 | 4.0 | 10.0 | 0.00 | 0.00 | 0.00 | 29 | 1010.3 |
| 20260505213201 | 85 | 251 | 4.0 | 7.0 | 0.00 | 0.00 | 0.00 | 28 | 1010.3 |
| 20260505212656 | 86 | 234 | 5.0 | 12.0 | 0.00 | 0.00 | 0.00 | 28 | 1010.3 |
| 20260505212154 | 86 | 238 | 2.0 | 4.0 | 0.00 | 0.00 | 0.00 | 28 | 1010.2 |